Location: Dehesa de la Cepeda
(40.6574°N, 4.3013°W)
Time: 06:47:43
(UTC+00:00)

Courier 1B Rocket - Pass Details

Date: 01 August 2021
Orbit: 920 x 1202 km, 28.3° (Epoch: 26 September)

Event Time Altitude Azimuth Distance (km) Brightness Sun altitude
Exits shadow 03:12:03 26° 185° (S) 1,797 6.0 -19.5°
Maximum altitude 03:12:41 26° 176° (S) 1,775 6.0 -19.4°
Drops below altitude 10° 03:17:47 10° 122° (ESE) 2,628 7.4 -18.8°
Sets 03:20:46 0° 110° (ESE) 3,555 8.3 -18.4°
